Погода Кайластуй

Погода Кайластуй : погода сейчас, прогноз погоды и архив. Всё, что Вы хотите узнать о погоде Кайластуй!

Хотите узнать прогноз погоды Кайластуй? Тогда Вам сюда: Погода Кайластуй

Поиск расширенной информации на нашем сайте:

Другие новости

Новости СМИ2

Главная страница сайта

Новости сайта

02.10.2013

Напоминаем, что на нашем новом сайте вы можете получить высокодетализированные прогнозы погоды по пунктам России, СНГ и мира (включающие важные для авиации метеовеличины, такие как направление и скорость ветра, видимость, явления погоды, количество и форма облачности, нижняя и верхняя граница облачности), а также ознакомиться с разнообразными материалами по авиационной метеорологии и подборкой полезных ссылок на эту тему.

Сайт Метеоцентр.Азия посвящён разработке технологий оптимизации авиаметеорологического обслуживания, включая проектирование и перспективное создание нескольких автоматизированных авиаметеорологических систем:
- система выпуска высокодетальных прогностических карт явлений погоды для нижнего воздушного пространства по России и ближнему зарубежью;
- система верификации прогнозов TAF (выпускаемых синоптиками официальных АМСГ РФ и ближнего зарубежья) и AUTOTAF (выпускаемых сайтом Метеоцентр.Азия) - выявление ошибок, онлайн-сопоставление с фактической погодой METAR, автоматическое внесение коррективов в прогнозы при резком отклонении фактической погоды от прогноза, подсчёт оправдываемости прогнозов по элементам и в целом;
- система обработки, анализа и отображения авиаметеорологической информации для применения провайдерами метеорологической информации.


Погода Кайластуй - сегодня

Время (UTC), дата Ветер
(°,м/с) 
Видим.   Явления Облачность Т
(°С)
Тd
(°С)
f(%) Тe
(°С)
Pmin
(гПа)
dP
(гПа)
Po
(мм)
O2
(г/м3)
Тmin Tmax R s Состояние
почвы
18 17.01.17 220 (ЮЗ) 4000 м  слаб. снег  10/0 верхняя 
[Cs]
-27.2 -30.1 76 -34  1039  0.5  723  325           
21 17.01.17 210 (ЮЗ) 4000 м  слаб. снег  10/0 средняя 
[As op]
-27.5 -30.5 76 -33  1039.2  0.1  723  326           
00 18.01.17 220 (ЮЗ) 20000 м  {снег}  10/0 средняя 
[As op]
-28.6 -31.9 73 -34  1040.4  0.7  723  327  -28.6    0.3  равномерный
сухой снег
100% 
03 18.01.17 220 (ЮЗ) 20000 м  {снег}  10/0 верхняя 
[Cs]
-27.6 -31.4 70 -35  1040.7  0.7  724  326  -28.7         
06 18.01.17 160 (Ю) 20000 м  {снег}  8/0 верхняя 
[Cs]
-26.2 -30.5 67 -31  1039.1  -1  723  324           
09 18.01.17 220 (ЮЗ) 4000 м  слаб. снег  10/0 средняя 
[As op]
-29 -32.2 74 -30  1040.1  0.1  723  328           
12 18.01.17 тихо ()   20000 м  {снег}  10/0 средняя 
[As op]
-30.8 -34.3 71 -31  1040.9  0.2  723  330    -25.5  0.0     
15 18.01.17 040 (СВ) 20000 м    ясно 
-32 -35.6 70 -36  1041  -0.3  723  332           
18 18.01.17 340 (С) 20000 м    ясно 
-32.3 -35.7 72 -33  1040.4  -0.6  722  332           
21 18.01.17 030 (СВ) 20000 м    ясно 
-34.3 -37.9 70 -35  1040.6  -0.5  722  335           
00 19.01.17 тихо ()   20000 м    ясно 
-35 -38.7 69 -35  1041  0.2  722  336  -35      равномерный
сухой снег
100% 
03 19.01.17 тихо ()   20000 м    3/0 верхняя 
[Ci sp]
-29.8 -33.2 72 -30  1039.8  0.5  723  329           
06 19.01.17 250 (З) 20000 м    3/0 верхняя 
[Ci sp]
-26.3 -31.5 62 -27  1036.9  -1.7  721  323           
09 19.01.17 210 (ЮЗ) 20000 м    3/0 средняя 
[Ac As]
-28.3 -31.6 73 -34  1037.7  0.2  722  326           
12 19.01.17 200 (Ю) 20000 м    ясно 
-30 -33.1 74 -36  1038.1  -0.2  721  328    -26.1       
15 19.01.17 040 (СВ) 20000 м    ясно 
-34.6 -38.2 70 -39  1038.9  -0.6  721  335           
18 19.01.17 030 (СВ) 20000 м    ясно 
-34.2 -37.7 70 -38  1037.3  -0.6  720  334           
21 19.01.17 030 (СВ) 20000 м    ясно 
-34.1 -37.7 70 -35  1036.6  -0.6  719  333           
00 20.01.17 210 (ЮЗ) 20000 м    4/0 верхняя 
[Ci sp]
-30.4 -33.5 74 -36  1034.5  -0.8  719  328  -35.3      равномерный
сухой снег
100% 
03 20.01.17 220 (ЮЗ) 20000 м    3/0 верхняя 
[Ci fib]
-26.9 -30.8 70 -35  1033.3  0.1  719  323           
06 20.01.17 230 (ЮЗ) 20000 м    10/0 верхняя 
[Cs]
-25.8 -30.3 66 -31  1031.1  -1.8  717  321           
09 20.01.17 100 (В) 20000 м    10/0 верхняя 
[Cs]
-26.1 -30.1 69 -27  1030.6  -0.5  717  321           
12 20.01.17 050 (СВ) 20000 м    10/0 средняя 
[As op]
-25.5 -28.9 73 -31  1030.2  -0.2  717  320    -25.3       
15 20.01.17 020 (С) 4000 м  слаб. снег  10/0 средняя 
[As op]
-25.4 -28.8 73 -30  1029.7  -0.4  717  320           
18 20.01.17 060 (СВ) 4000 м  слаб. снег  10/0 средняя 
[As op]
-25.6 -28.7 75 -33  1029.7  -0.1  716  320           
Время (UTC), дата Ветер
(°,м/с) 
Видим.   Явления Облачность Т
(°С)
Тd
(°С)
f(%) Тe
(°С)
Pmin
(гПа)
dP
(гПа)
Po
(мм)
O2
(г/м3)
Тmin Tmax R s Состояние
почвы

Для получения пояснительной информации подведите курсор к названию столбца.

ПОГОДА Кайластуй - архив

Всё, что Вы хотите узнать о погоде Кайластуй - удобно и подробно!

Выберите нужную дату (начиная с 1 января 2015* года) и нажмите кнопку "Найти".
Будут отображены архивные сводки погоды по пункту Кайластуй, начиная с указанной даты.


Отображать данные в формате CSV (для использования в таблицах Excel)


Внимание! Наш архив погоды предназначен исключительно для личного некоммерческого использования в познавательных целях. Если Вам необходимы официальные справки о состоянии погоды (для производственных, юридических, коммерческих и т.п. целей), обращайтесь в органы Росгидромета.

*Примечание: данная дата относится к архиву по метеостанциям СССР (Россия, СНГ, Балтия).
Архив по метеостанциям Зарубежной Европы и Азии (кроме Китая) хранится 10 дней, по другим регионам земного шара (Китай, Африка, Америка, Австралия, Океания) - 1 день.

Кайластуй - район местоположения метеостанции


Название, широта, долгота, высота метеостанции:
Кайластуй 49.8°ш. 118.4°д. 550 м над ур. моря [Российская Федерация]

Дополнительная информация

В oтличие oт бoльшинства пoгoдных сайтoв мы публикуем пoдрoбную метеoинфoрмацию в детальнoм прoфессиoнальнoм фoрмате.

Характеристики температуры и влажнoсти вoздуха измеряются на высoте 2 м в тени вдали oт зданий и деревьев.
Скoрoсть ветра измеряется на высoте 10 м (на урoвне рoста челoвека скoрoсть ветра ниже в 1.5-2 раза). Если метеoстанция нахoдится в гoрoде или в лесу, тo скoрoсть ветра занижена на 2-4 м/с пo сравнению с oткрытым местoм. Скoрoсть ветра над акватoриями крупных рек и oзёр, а также на вершинах хoлмoв на 2-5 м/с выше, чем в oбычных услoвиях.
Атмoсфернoе давление в разных тoчках местнoсти мoжет значительнo oтличаться oт давления на метеoстанции, в зависимoсти oт услoвий рельефа (при пoдъёме на 10 м давление пoнижается примернo на 1 мм рт.ст.).